Location: Alpine
(43.1636°N, 111.0180°W)
Time: 05:14:04
(UTC+00:00)

Tiros 1 despin weight - Pass Details

Date: 04 June 2022
Orbit: 591 x 639 km, 48.2° (Epoch: 30 June)

Event Time Altitude Azimuth Distance (km) Brightness Sun altitude
Rises 22:52:26 0° 254° (WSW) 2,908 ? 42.2°
Reaches altitude 10° 22:54:47 10° 257° (WSW) 1,995 ? 41.8°
Maximum altitude 22:59:21 68° 340° (NNW) 669 ? 41.0°
Drops below altitude 10° 23:03:52 10° 64° (ENE) 1,969 ? 40.2°
Sets 23:06:10 0° 67° (ENE) 2,867 ? 39.8°
